Orbital Elements
Epoch 2022 Jan. 21.0 TT = JDT 2459600.5
T 2021 Nov. 3.10858 TT Rudenko
q 4.9929798 (2000.0) P Q
z -0.0002850 Peri. 180.46765 -0.25318197 -0.30192968
+/-0.0000006 Node 75.48052 -0.88447838 +0.45712121
e 1.0014229 Incl. 108.30136 -0.39191438 -0.83658751
From 2226 observations 2018 Oct. 27-2022 Feb. 20, mean residual 0".5.
|